Location: Newark
(22.3060°N, 114.2134°E)
Time: 03:33:53
(UTC+00:00)

Vanguard 1 Rocket - Pass Details

Date: 01 August 2021
Orbit: 650 x 4226 km, 34.3° (Epoch: 24 September)

Event Time Altitude Azimuth Distance (km) Brightness Sun altitude
Rises 20:01:32 0° 186° (S) 7,598 11.7 -24.5°
Reaches altitude 10° 20:11:49 10° 164° (SSE) 7,159 11.8 -22.5°
Maximum altitude 20:22:35 14° 138° (SE) 7,052 12.0 -20.3°
Drops below altitude 10° 20:33:19 10° 113° (ESE) 7,309 12.5 -18.2°
Sets 20:43:33 0° 92° (E) 7,897 13.3 -16.1°
